"Period start","avg(HW err(1)/warn(2) (#))","avg(Visibility (m))","avg(Weather code (#))","avg(Precip intensity (mm/h))","min(HW err(1)/warn(2) (#))","max(HW err(1)/warn(2) (#))","std(HW err(1)/warn(2) (#))","med(HW err(1)/warn(2) (#))","min(Visibility (m))","max(Visibility (m))","std(Visibility (m))","med(Visibility (m))","min(Weather code (#))","max(Weather code (#))","std(Weather code (#))","med(Weather code (#))","min(Precip intensity (mm/h))","max(Precip intensity (mm/h))","std(Precip intensity (mm/h))","med(Precip intensity (mm/h))"
2013-08-29 00:00:00,0,47437,0,0.00,0,0,0,0,38350,50000,3667,49656,0,0,0,0,0.00,0.00,0.00,0.00
2013-08-29 00:10:00,0,47666,0,0.00,0,0,0,0,41667,50000,3074,49691,0,0,0,0,0.00,0.00,0.00,0.00
2013-08-29 00:20:00,0,44386,0,0.00,0,0,0,0,37754,48913,3744,46095,0,0,0,0,0.00,0.00,0.00,0.00
2013-08-29 00:30:00,0,47085,0,0.00,0,0,0,0,34623,50000,4551,49126,0,0,0,0,0.00,0.00,0.00,0.00
2013-08-29 00:40:00,0,44989,0,0.00,0,0,0,0,31954,50000,6449,49586,0,0,0,0,0.00,0.00,0.00,0.00
2013-08-29 00:50:00,0,42629,0,0.00,0,0,0,0,35764,50000,4405,42160,0,0,0,0,0.00,0.00,0.00,0.00
2013-08-29 01:00:00,0,46387,0,0.00,0,0,0,0,41749,50000,3166,45770,0,0,0,0,0.00,0.00,0.00,0.00
2013-08-29 01:10:00,0,41696,0,0.00,0,0,0,0,33843,50000,5696,42486,0,0,0,0,0.00,0.00,0.00,0.00
2013-08-29 01:20:00,0,41860,0,0.00,0,0,0,0,28240,50000,6895,42234,0,0,0,0,0.00,0.00,0.00,0.00
2013-08-29 01:30:00,0,41687,0,0.00,0,0,0,0,33470,50000,5442,42674,0,0,0,0,0.00,0.00,0.00,0.00
2013-08-29 01:40:00,0,34887,0,0.00,0,0,0,0,25742,43456,5989,36320,0,0,0,0,0.00,0.00,0.00,0.00
2013-08-29 01:50:00,0,38289,0,0.00,0,0,0,0,28584,49956,6740,38528,0,0,0,0,0.00,0.00,0.00,0.00
2013-08-29 02:00:00,0,44525,0,0.00,0,0,0,0,32793,50000,5922,46738,0,0,0,0,0.00,0.00,0.00,0.00
2013-08-29 02:10:00,0,45181,0,0.00,0,0,0,0,33102,50000,5063,46500,0,0,0,0,0.00,0.00,0.00,0.00
2013-08-29 02:20:00,0,44020,0,0.00,0,0,0,0,35506,50000,4729,43269,0,0,0,0,0.00,0.00,0.00,0.00
2013-08-29 02:30:00,0,46896,0,0.00,0,0,0,0,39845,50000,2959,47564,0,0,0,0,0.00,0.00,0.00,0.00
2013-08-29 02:40:00,0,47667,0,0.00,0,0,0,0,39468,50000,3304,49646,0,0,0,0,0.00,0.00,0.00,0.00
2013-08-29 02:50:00,0,48075,0,0.00,0,0,0,0,40484,50000,2837,49280,0,0,0,0,0.00,0.00,0.00,0.00
2013-08-29 03:00:00,0,46692,0,0.00,0,0,0,0,41442,50000,3195,47012,0,0,0,0,0.00,0.00,0.00,0.00
2013-08-29 03:10:00,0,46928,0,0.00,0,0,0,0,41386,50000,3269,48376,0,0,0,0,0.00,0.00,0.00,0.00
2013-08-29 03:20:00,0,44693,0,0.00,0,0,0,0,39249,50000,3909,45512,0,0,0,0,0.00,0.00,0.00,0.00
2013-08-29 03:30:00,0,47812,0,0.00,0,0,0,0,40783,50000,2607,48548,0,0,0,0,0.00,0.00,0.00,0.00
2013-08-29 03:40:00,0,47994,0,0.00,0,0,0,0,41319,50000,2664,49010,0,0,0,0,0.00,0.00,0.00,0.00
2013-08-29 03:50:00,0,48376,0,0.00,0,0,0,0,44761,50000,2116,49680,0,0,0,0,0.00,0.00,0.00,0.00
2013-08-29 04:00:00,0,48450,0,0.00,0,0,0,0,45581,50000,1603,48761,0,0,0,0,0.00,0.00,0.00,0.00
2013-08-29 04:10:00,0,47482,0,0.00,0,0,0,0,39998,50000,3095,48620,0,0,0,0,0.00,0.00,0.00,0.00
2013-08-29 04:20:00,0,44093,0,0.00,0,0,0,0,36696,49700,3631,44683,0,0,0,0,0.00,0.00,0.00,0.00
2013-08-29 04:30:00,0,47170,0,0.00,0,0,0,0,43187,50000,2666,48060,0,0,0,0,0.00,0.00,0.00,0.00
2013-08-29 04:40:00,0,40945,0,0.00,0,0,0,0,30731,48230,5866,42430,0,0,0,0,0.00,0.00,0.00,0.00
2013-08-29 04:50:00,0,47052,0,0.00,0,0,0,0,40091,50000,2850,47364,0,0,0,0,0.00,0.00,0.00,0.00
2013-08-29 05:00:00,0,49612,0,0.00,0,0,0,0,48754,50000,495,49894,0,0,0,0,0.00,0.00,0.00,0.00
2013-08-29 05:10:00,0,49732,0,0.00,0,0,0,0,47963,50000,620,50000,0,0,0,0,0.00,0.00,0.00,0.00
2013-08-29 05:20:00,0,47867,0,0.00,0,0,0,0,40324,50000,3087,49636,0,0,0,0,0.00,0.00,0.00,0.00
2013-08-29 05:30:00,0,47706,0,0.00,0,0,0,0,43884,50000,2132,48039,0,0,0,0,0.00,0.00,0.00,0.00
2013-08-29 05:40:00,0,49365,0,0.00,0,0,0,0,44039,50000,1777,50000,0,0,0,0,0.00,0.00,0.00,0.00
2013-08-29 05:50:00,0,48799,0,0.00,0,0,0,0,44595,50000,1855,50000,0,0,0,0,0.00,0.00,0.00,0.00
2013-08-29 06:00:00,0,35060,31,4.75,0,0,0,0,17225,48825,11919,36205,0,62,31,30,0.00,13.35,5.03,3.17
2013-08-29 06:10:00,0,18216,62,15.27,0,0,0,0,12356,25362,4604,16024,61,62,0,62,4.45,27.20,7.38,14.25
2013-08-29 06:20:00,0,9970,62,26.64,0,0,0,0,8299,12683,1184,9814,62,63,0,62,11.05,43.20,10.17,24.38
2013-08-29 06:30:00,0,22244,61,3.13,0,0,0,0,14291,31136,5301,21912,61,62,0,61,0.00,15.25,4.61,0.85
2013-08-29 06:40:00,0,31694,12,0.01,0,0,0,0,21902,44861,8424,31718,0,61,24,0,0.00,0.05,0.02,0.00
2013-08-29 06:50:00,0,28342,0,0.00,0,0,0,0,25201,34391,2481,27692,0,0,0,0,0.00,0.00,0.00,0.00
2013-08-29 07:00:00,0,26663,20,0.11,0,0,0,0,17570,37033,6141,25611,0,61,26,0,0.00,0.45,0.18,0.00
2013-08-29 07:10:00,0,36421,46,0.14,0,0,0,0,26912,44773,5772,34766,41,51,5,46,0.00,0.40,0.12,0.12
2013-08-29 07:20:00,0,27667,51,0.55,0,0,0,0,20343,45358,7441,24824,51,51,0,51,0.05,1.35,0.35,0.47
2013-08-29 07:30:00,0,43398,36,0.03,0,0,0,0,37191,50000,4700,42036,0,61,25,41,0.00,0.15,0.05,0.00
2013-08-29 07:40:00,0,48573,0,0.00,0,0,0,0,43356,50000,2185,49869,0,0,0,0,0.00,0.00,0.00,0.00
2013-08-29 07:50:00,0,47541,0,0.00,0,0,0,0,42732,50000,2769,48738,0,0,0,0,0.00,0.00,0.00,0.00
2013-08-29 08:00:00,0,42817,0,0.00,0,0,0,0,37828,46440,2875,43520,0,0,0,0,0.00,0.00,0.00,0.00
2013-08-29 08:10:00,0,43721,0,0.00,0,0,0,0,35358,49349,4334,43822,0,0,0,0,0.00,0.00,0.00,0.00
2013-08-29 08:20:00,0,23734,0,0.00,0,0,0,0,13625,42872,10717,18438,0,0,0,0,0.00,0.00,0.00,0.00
2013-08-29 08:30:00,0,22228,49,0.08,0,0,0,0,15314,30668,4170,21480,0,61,19,61,0.00,0.15,0.06,0.10
2013-08-29 08:40:00,0,30179,41,0.06,0,0,0,0,23519,38280,3983,30078,41,41,0,41,0.00,0.15,0.04,0.05
2013-08-29 08:50:00,0,24748,43,0.13,0,0,0,0,18089,28845,3616,26209,41,51,4,41,0.05,0.20,0.06,0.12
2013-08-29 09:00:00,0,17954,53,0.59,0,0,0,0,13363,22364,3289,18435,51,61,4,52,0.05,2.15,0.60,0.35
2013-08-29 09:10:00,0,16328,57,1.21,0,0,0,0,14424,19260,1674,15694,52,61,4,61,0.50,2.20,0.57,1.10
2013-08-29 09:20:00,0,18762,53,0.35,0,0,0,0,15297,22168,2251,18032,51,61,4,52,0.10,0.80,0.21,0.30
2013-08-29 09:30:00,0,21004,53,0.27,0,0,0,0,14223,28746,5680,19430,51,61,4,51,0.05,0.55,0.17,0.20
2013-08-29 09:40:00,0,29297,53,0.98,0,0,0,0,17575,35021,4918,30478,51,61,4,51,0.05,2.50,0.81,0.80
2013-08-29 09:50:00,0,29534,61,0.55,0,0,0,0,20646,32547,3246,30138,61,61,0,61,0.05,3.50,1.00,0.17
2013-08-29 10:00:00,0,35725,38,0.10,0,0,0,0,26018,46759,6498,34928,0,61,25,51,0.00,0.30,0.09,0.08
2013-08-29 10:10:00,0,43346,0,0.00,0,0,0,0,36733,50000,4560,42868,0,0,0,0,0.00,0.00,0.00,0.00
2013-08-29 10:20:00,0,36621,0,0.00,0,0,0,0,28392,40362,3381,37310,0,0,0,0,0.00,0.00,0.00,0.00
2013-08-29 10:30:00,0,43299,0,0.00,0,0,0,0,30675,50000,5948,45184,0,0,0,0,0.00,0.00,0.00,0.00
2013-08-29 10:40:00,0,45794,0,0.00,0,0,0,0,38926,50000,4152,47340,0,0,0,0,0.00,0.00,0.00,0.00
2013-08-29 10:50:00,0,48276,0,0.00,0,0,0,0,43758,50000,2080,49354,0,0,0,0,0.00,0.00,0.00,0.00
2013-08-29 11:00:00,0,48902,0,0.00,0,0,0,0,47279,50000,1045,48966,0,0,0,0,0.00,0.00,0.00,0.00
2013-08-29 11:10:00,0,49690,0,0.00,0,0,0,0,48205,50000,627,50000,0,0,0,0,0.00,0.00,0.00,0.00
2013-08-29 11:20:00,0,49396,0,0.00,0,0,0,0,46478,50000,1219,50000,0,0,0,0,0.00,0.00,0.00,0.00
2013-08-29 11:30:00,0,46635,0,0.00,0,0,0,0,40118,50000,3518,47682,0,0,0,0,0.00,0.00,0.00,0.00
2013-08-29 11:40:00,0,48361,0,0.00,0,0,0,0,41832,50000,2542,49775,0,0,0,0,0.00,0.00,0.00,0.00
2013-08-29 11:50:00,0,47446,0,0.00,0,0,0,0,43878,50000,2039,47137,0,0,0,0,0.00,0.00,0.00,0.00
2013-08-29 12:00:00,0,49735,0,0.00,0,0,0,0,48063,50000,597,50000,0,0,0,0,0.00,0.00,0.00,0.00
2013-08-29 12:10:00,0,49461,0,0.00,0,0,0,0,45519,50000,1342,50000,0,0,0,0,0.00,0.00,0.00,0.00
2013-08-29 12:20:00,0,49863,0,0.00,0,0,0,0,48633,50000,410,50000,0,0,0,0,0.00,0.00,0.00,0.00
2013-08-29 12:30:00,0,49910,0,0.00,0,0,0,0,49355,50000,193,50000,0,0,0,0,0.00,0.00,0.00,0.00
2013-08-29 12:40:00,0,45343,0,0.00,0,0,0,0,35237,50000,5244,46914,0,0,0,0,0.00,0.00,0.00,0.00
2013-08-29 12:50:00,0,50000,0,0.00,0,0,0,0,50000,50000,0,50000,0,0,0,0,0.00,0.00,0.00,0.00
2013-08-29 13:00:00,0,50000,0,0.00,0,0,0,0,50000,50000,0,50000,0,0,0,0,0.00,0.00,0.00,0.00
2013-08-29 13:10:00,0,50000,0,0.00,0,0,0,0,50000,50000,0,50000,0,0,0,0,0.00,0.00,0.00,0.00
2013-08-29 13:20:00,0,50000,0,0.00,0,0,0,0,50000,50000,0,50000,0,0,0,0,0.00,0.00,0.00,0.00
2013-08-29 13:30:00,0,50000,0,0.00,0,0,0,0,50000,50000,0,50000,0,0,0,0,0.00,0.00,0.00,0.00
2013-08-29 13:40:00,0,50000,0,0.00,0,0,0,0,50000,50000,0,50000,0,0,0,0,0.00,0.00,0.00,0.00
2013-08-29 13:50:00,0,50000,0,0.00,0,0,0,0,50000,50000,0,50000,0,0,0,0,0.00,0.00,0.00,0.00
2013-08-29 14:00:00,2,50000,0,0.00,0,2,1,2,50000,50000,0,50000,0,0,0,0,0.00,0.00,0.00,0.00
2013-08-29 14:10:00,2,50000,0,0.00,2,2,0,2,50000,50000,0,50000,0,0,0,0,0.00,0.00,0.00,0.00
2013-08-29 14:20:00,2,50000,0,0.00,2,2,0,2,50000,50000,0,50000,0,0,0,0,0.00,0.00,0.00,0.00
2013-08-29 14:30:00,2,50000,0,0.00,2,2,0,2,50000,50000,0,50000,0,0,0,0,0.00,0.00,0.00,0.00
2013-08-29 14:40:00,2,50000,0,0.00,2,2,0,2,50000,50000,0,50000,0,0,0,0,0.00,0.00,0.00,0.00
2013-08-29 14:50:00,2,50000,0,0.00,2,2,0,2,50000,50000,0,50000,0,0,0,0,0.00,0.00,0.00,0.00
2013-08-29 15:00:00,2,50000,0,0.00,2,2,0,2,50000,50000,0,50000,0,0,0,0,0.00,0.00,0.00,0.00
2013-08-29 15:10:00,2,49999,0,0.00,2,2,0,2,49986,50000,4,50000,0,0,0,0,0.00,0.00,0.00,0.00
2013-08-29 15:20:00,2,49784,0,0.00,2,2,0,2,47946,50000,613,50000,0,0,0,0,0.00,0.00,0.00,0.00
2013-08-29 15:30:00,2,50000,0,0.00,2,2,0,2,50000,50000,0,50000,0,0,0,0,0.00,0.00,0.00,0.00
2013-08-29 15:40:00,2,49134,0,0.00,2,2,0,2,46011,50000,1346,50000,0,0,0,0,0.00,0.00,0.00,0.00
2013-08-29 15:50:00,2,50000,0,0.00,2,2,0,2,50000,50000,0,50000,0,0,0,0,0.00,0.00,0.00,0.00
2013-08-29 16:00:00,2,50000,0,0.00,2,2,0,2,50000,50000,0,50000,0,0,0,0,0.00,0.00,0.00,0.00
2013-08-29 16:10:00,2,50000,0,0.00,2,2,0,2,50000,50000,0,50000,0,0,0,0,0.00,0.00,0.00,0.00
2013-08-29 16:20:00,2,49390,0,0.00,2,2,0,2,45827,50000,1320,50000,0,0,0,0,0.00,0.00,0.00,0.00
2013-08-29 16:30:00,2,50000,0,0.00,2,2,0,2,50000,50000,0,50000,0,0,0,0,0.00,0.00,0.00,0.00
2013-08-29 16:40:00,2,49969,0,0.00,2,2,0,2,49692,50000,92,50000,0,0,0,0,0.00,0.00,0.00,0.00
2013-08-29 16:50:00,2,49331,0,0.00,2,2,0,2,47557,50000,899,50000,0,0,0,0,0.00,0.00,0.00,0.00
2013-08-29 17:00:00,2,46972,0,0.00,2,2,0,2,38366,50000,4070,49400,0,0,0,0,0.00,0.00,0.00,0.00
2013-08-29 17:10:00,2,49919,0,0.00,2,2,0,2,49555,50000,163,50000,0,0,0,0,0.00,0.00,0.00,0.00
2013-08-29 17:20:00,2,46544,0,0.00,2,2,0,2,41797,50000,3262,46874,0,0,0,0,0.00,0.00,0.00,0.00
2013-08-29 17:30:00,2,44086,0,0.00,2,2,0,2,37965,49563,3497,44425,0,0,0,0,0.00,0.00,0.00,0.00
2013-08-29 17:40:00,2,47467,0,0.00,2,2,0,2,34139,50000,4792,49974,0,0,0,0,0.00,0.00,0.00,0.00
2013-08-29 17:50:00,2,43939,0,0.00,2,2,0,2,29094,50000,6547,46733,0,0,0,0,0.00,0.00,0.00,0.00
2013-08-29 18:00:00,2,38815,0,0.00,2,2,0,2,24314,50000,8853,37963,0,0,0,0,0.00,0.00,0.00,0.00
2013-08-29 18:10:00,2,42523,0,0.00,2,2,0,2,28716,49693,6155,43092,0,0,0,0,0.00,0.00,0.00,0.00
2013-08-29 18:20:00,2,39766,0,0.00,2,2,0,2,29330,50000,7552,39660,0,0,0,0,0.00,0.00,0.00,0.00
2013-08-29 18:30:00,2,36442,0,0.00,2,2,0,2,33076,39913,1982,36760,0,0,0,0,0.00,0.00,0.00,0.00
2013-08-29 18:40:00,2,34928,0,0.00,2,2,0,2,29141,39891,3437,35900,0,0,0,0,0.00,0.00,0.00,0.00
2013-08-29 18:50:00,2,30005,0,0.00,2,2,0,2,24566,35132,3685,31367,0,0,0,0,0.00,0.00,0.00,0.00
2013-08-29 19:00:00,2,30730,0,0.00,2,2,0,2,26011,40925,4726,28858,0,0,0,0,0.00,0.00,0.00,0.00
2013-08-29 19:10:00,2,40224,0,0.00,2,2,0,2,30249,50000,5717,40267,0,0,0,0,0.00,0.00,0.00,0.00
2013-08-29 19:20:00,2,33937,0,0.00,2,2,0,2,23564,43513,5296,34252,0,0,0,0,0.00,0.00,0.00,0.00
2013-08-29 19:30:00,2,27706,0,0.00,2,2,0,2,22064,35920,4762,26674,0,0,0,0,0.00,0.00,0.00,0.00
2013-08-29 19:40:00,2,30448,0,0.00,2,2,0,2,21695,41757,7974,27101,0,0,0,0,0.00,0.00,0.00,0.00
2013-08-29 19:50:00,2,31978,0,0.00,2,2,0,2,27333,39914,4383,30418,0,0,0,0,0.00,0.00,0.00,0.00
2013-08-29 20:00:00,2,30568,0,0.00,2,2,0,2,26212,37972,3845,29160,0,0,0,0,0.00,0.00,0.00,0.00
2013-08-29 20:10:00,2,29663,0,0.00,2,2,0,2,25676,31952,1988,29817,0,0,0,0,0.00,0.00,0.00,0.00
2013-08-29 20:20:00,2,25220,0,0.00,2,2,0,2,20349,29809,2701,25244,0,0,0,0,0.00,0.00,0.00,0.00
2013-08-29 20:30:00,2,24475,0,0.00,2,2,0,2,14327,31108,4812,24940,0,0,0,0,0.00,0.00,0.00,0.00
2013-08-29 20:40:00,2,23244,0,0.00,2,2,0,2,15258,31665,5043,22838,0,0,0,0,0.00,0.00,0.00,0.00
2013-08-29 20:50:00,2,29125,0,0.00,2,2,0,2,24241,35488,3708,28282,0,0,0,0,0.00,0.00,0.00,0.00
2013-08-29 21:00:00,2,27174,0,0.00,2,2,0,2,20313,32162,3658,27434,0,0,0,0,0.00,0.00,0.00,0.00
2013-08-29 21:10:00,2,31845,0,0.00,2,2,0,2,26841,39101,3834,30896,0,0,0,0,0.00,0.00,0.00,0.00
2013-08-29 21:20:00,2,27338,0,0.00,2,2,0,2,18820,37958,6260,25844,0,0,0,0,0.00,0.00,0.00,0.00
2013-08-29 21:30:00,2,28374,0,0.00,2,2,0,2,23072,30743,2534,29310,0,0,0,0,0.00,0.00,0.00,0.00
2013-08-29 21:40:00,2,29120,0,0.00,2,2,0,2,22273,36902,4383,29416,0,0,0,0,0.00,0.00,0.00,0.00
2013-08-29 21:50:00,2,25242,0,0.00,2,2,0,2,21440,32446,3106,24910,0,0,0,0,0.00,0.00,0.00,0.00
2013-08-29 22:00:00,2,24248,0,0.00,2,2,0,2,19588,29734,3036,23812,0,0,0,0,0.00,0.00,0.00,0.00
2013-08-29 22:10:00,2,29668,0,0.00,2,2,0,2,23255,39206,5047,29168,0,0,0,0,0.00,0.00,0.00,0.00
2013-08-29 22:20:00,2,23760,0,0.00,2,2,0,2,19596,27729,2373,23734,0,0,0,0,0.00,0.00,0.00,0.00
2013-08-29 22:30:00,2,23660,0,0.00,2,2,0,2,19175,29525,3072,23616,0,0,0,0,0.00,0.00,0.00,0.00
2013-08-29 22:40:00,2,21775,0,0.00,2,2,0,2,19316,25403,1763,21523,0,0,0,0,0.00,0.00,0.00,0.00
2013-08-29 22:50:00,2,25016,0,0.00,2,2,0,2,19711,31775,3477,24484,0,0,0,0,0.00,0.00,0.00,0.00
2013-08-29 23:00:00,2,27391,0,0.00,2,2,0,2,25022,30401,1707,27348,0,0,0,0,0.00,0.00,0.00,0.00
2013-08-29 23:10:00,2,23113,0,0.00,2,2,0,2,20100,26011,1814,23284,0,0,0,0,0.00,0.00,0.00,0.00
2013-08-29 23:20:00,2,24117,0,0.00,0,2,1,2,20002,27800,2796,25220,0,0,0,0,0.00,0.00,0.00,0.00
2013-08-29 23:30:00,2,21960,0,0.00,0,2,1,2,19465,24592,1535,21722,0,0,0,0,0.00,0.00,0.00,0.00
2013-08-29 23:40:00,2,22228,0,0.00,0,2,1,2,20169,25542,1696,21640,0,0,0,0,0.00,0.00,0.00,0.00
2013-08-29 23:50:00,2,27979,0,0.00,2,2,0,2,24099,34798,3417,26663,0,0,0,0,0.00,0.00,0.00,0.00
